TimePDT,TemperatureF,Dew PointF,Humidity,Sea Level PressureIn,VisibilityMPH,Wind Direction,Wind SpeedMPH,Gust SpeedMPH,PrecipitationIn,Events,Conditions,WindDirDegrees,DateUTC
12:03 AM,51.1,50.0,96,29.97,1.0,West,10.4,-,N/A,,Overcast,280,2013-08-06 07:03:00
12:25 AM,51.1,50.0,96,29.97,1.2,West,8.1,-,N/A,,Overcast,280,2013-08-06 07:25:00
12:36 AM,51.1,50.0,96,29.98,3.0,WNW,6.9,-,N/A,,Overcast,300,2013-08-06 07:36:00
12:48 AM,51.8,50.0,94,29.98,2.0,WNW,9.2,-,N/A,,Overcast,290,2013-08-06 07:48:00
12:53 AM,51.1,50.0,96,29.98,1.5,WNW,8.1,-,N/A,,Overcast,300,2013-08-06 07:53:00
1:25 AM,51.1,50.0,96,29.98,1.0,WNW,6.9,-,N/A,,Mist,300,2013-08-06 08:25:00
1:36 AM,51.1,50.0,96,29.98,0.8,WNW,6.9,-,N/A,,Mist,290,2013-08-06 08:36:00
1:53 AM,51.1,50.0,96,29.98,0.8,West,5.8,-,N/A,,Mist,280,2013-08-06 08:53:00
2:37 AM,51.1,50.0,96,29.99,1.0,West,8.1,-,N/A,,Mist,270,2013-08-06 09:37:00
2:53 AM,51.1,50.0,96,29.99,1.0,WNW,8.1,-,N/A,,Mist,300,2013-08-06 09:53:00
3:15 AM,51.1,50.0,96,29.98,0.8,West,9.2,-,N/A,,Mist,280,2013-08-06 10:15:00
3:53 AM,50.0,50.0,100,29.99,0.8,West,5.8,-,N/A,,Mist,280,2013-08-06 10:53:00
4:12 AM,50.0,48.9,96,29.99,1.0,West,6.9,-,N/A,,Mist,280,2013-08-06 11:12:00
4:19 AM,50.0,50.0,100,29.98,0.8,West,5.8,-,N/A,,Mist,280,2013-08-06 11:19:00
4:34 AM,50.0,48.9,96,29.99,1.0,WNW,8.1,-,N/A,,Mist,290,2013-08-06 11:34:00
4:53 AM,50.0,48.9,96,29.99,0.8,WNW,6.9,-,N/A,,Mist,300,2013-08-06 11:53:00
5:53 AM,50.0,48.9,96,29.99,1.0,WNW,6.9,-,N/A,,Mist,290,2013-08-06 12:53:00
6:15 AM,50.0,48.9,96,29.99,0.8,West,9.2,-,N/A,,Overcast,280,2013-08-06 13:15:00
6:53 AM,50.0,48.9,96,30.00,3.0,West,3.5,-,N/A,,Overcast,280,2013-08-06 13:53:00
7:26 AM,50.0,48.9,96,30.01,1.5,West,4.6,-,N/A,,Overcast,270,2013-08-06 14:26:00
7:35 AM,51.1,50.0,96,30.01,0.5,WNW,5.8,-,N/A,Fog,Fog,290,2013-08-06 14:35:00
7:44 AM,50.0,48.9,96,30.02,2.5,West,3.5,-,N/A,,Overcast,270,2013-08-06 14:44:00
7:53 AM,51.1,50.0,96,30.02,1.8,West,5.8,-,N/A,,Overcast,270,2013-08-06 14:53:00
7:58 AM,51.1,50.0,96,30.01,3.0,West,4.6,-,N/A,,Overcast,280,2013-08-06 14:58:00
8:48 AM,53.6,51.8,94,30.02,10.0,NW,5.8,-,N/A,,Scattered Clouds,310,2013-08-06 15:48:00
8:53 AM,55.9,51.1,84,30.02,10.0,NW,4.6,-,N/A,,Partly Cloudy,310,2013-08-06 15:53:00
9:53 AM,59.0,51.1,75,30.02,10.0,NNW,5.8,-,N/A,,Clear,340,2013-08-06 16:53:00
10:53 AM,57.9,51.1,78,30.02,10.0,North,6.9,-,N/A,,Clear,10,2013-08-06 17:53:00
11:53 AM,62.1,51.1,67,30.02,10.0,Variable,4.6,-,N/A,,Clear,0,2013-08-06 18:53:00
12:53 PM,63.0,51.1,65,30.01,10.0,NNW,8.1,-,N/A,,Clear,330,2013-08-06 19:53:00
1:53 PM,64.9,52.0,63,30.01,10.0,North,6.9,-,N/A,,Clear,360,2013-08-06 20:53:00
2:53 PM,66.0,52.0,60,30.01,10.0,NW,9.2,-,N/A,,Clear,310,2013-08-06 21:53:00
3:53 PM,64.9,52.0,63,29.99,10.0,NW,8.1,-,N/A,,Clear,310,2013-08-06 22:53:00
4:53 PM,66.0,53.1,63,29.99,10.0,WNW,10.4,-,N/A,,Clear,300,2013-08-06 23:53:00
5:53 PM,64.0,53.1,67,29.98,10.0,NW,5.8,-,N/A,,Clear,320,2013-08-07 00:53:00
6:53 PM,64.0,54.0,70,29.96,10.0,WNW,4.6,-,N/A,,Clear,290,2013-08-07 01:53:00
7:53 PM,60.1,53.1,78,29.96,10.0,NW,4.6,-,N/A,,Clear,310,2013-08-07 02:53:00
8:53 PM,53.1,51.1,93,29.96,10.0,WNW,4.6,-,N/A,,Clear,300,2013-08-07 03:53:00
9:53 PM,52.0,50.0,93,29.97,10.0,West,4.6,-,N/A,,Clear,270,2013-08-07 04:53:00
10:22 PM,51.1,48.9,92,29.97,10.0,NW,3.5,-,N/A,,Scattered Clouds,310,2013-08-07 05:22:00
10:37 PM,51.1,50.0,96,29.96,6.0,NW,5.8,-,N/A,,Mostly Cloudy,310,2013-08-07 05:37:00
10:43 PM,51.1,48.9,92,29.97,1.5,NW,6.9,-,N/A,,Overcast,310,2013-08-07 05:43:00
10:53 PM,51.1,51.1,100,29.96,0.8,WNW,5.8,-,N/A,,Mist,300,2013-08-07 05:53:00
11:04 PM,51.1,50.0,96,29.96,2.5,NW,5.8,-,N/A,,Overcast,310,2013-08-07 06:04:00
11:11 PM,51.1,50.0,96,29.96,9.0,WNW,6.9,-,N/A,,Overcast,300,2013-08-07 06:11:00
11:38 PM,52.0,50.0,93,29.96,10.0,WNW,6.9,-,N/A,,Overcast,290,2013-08-07 06:38:00
11:53 PM,51.1,50.0,96,29.96,10.0,NW,5.8,-,N/A,,Overcast,310,2013-08-07 06:53:00